Terminal Aerodrome Forecast
Issued by NWS

Home | Current Version | Previous Version | Graphics & Text | Print | Product List | Glossary On
Versions: 1 2 3 4 5 6 7 8 9 10 11 12 13 14 15 16 17 18 19 20 21 22 23 24 25 26 27 28 29 30 31
000
FTUS45 KGGW 212300
TAFOLF
TAF
KOLF 212336Z 2200/2224 VRB05KT 4SM -RA BR OVC035
     FM220600 29014KT 5SM -SN OVC010
     FM221800 32015KT P6SM VCSH OVC010=

USA.gov is the U.S. government's official web portal to all federal, state and local government web resources and services.